WZZ901 KSAN-KLAX

Flight info

Callsign WZZ901
Flight time N/A
Altitude 10000
Route CWARD2 SLI DCT
Aircraft A20N/M-SDE2E3FGHIRWXY/LB1

Departure

Time 2026-04-22 06:02
Airport San Diego International Airport (KSAN)

Arrival

Time N/A
Airport Los Angeles International Airport (KLAX)
Time Latitude Longitude Altitude Speed Heading
2026-04-22 05:39 32.73263 -117.19391 27 ft 0 kts 196°
2026-04-22 05:55 32.73269 -117.19389 27 ft 3 kts 196°
2026-04-22 05:55 32.73280 -117.19385 28 ft 3 kts 196°
2026-04-22 05:55 32.73298 -117.19379 28 ft 3 kts 196°
2026-04-22 05:55 32.73313 -117.19372 28 ft 3 kts 186°
2026-04-22 05:56 32.73328 -117.19378 28 ft 2 kts 112°
2026-04-22 05:56 32.73329 -117.19380 28 ft 0 kts 109°
2026-04-22 05:58 32.73327 -117.19372 28 ft 8 kts 109°
2026-04-22 05:58 32.73314 -117.19243 27 ft 0 kts 97°
2026-04-22 05:58 32.73308 -117.19206 27 ft 10 kts 104°
2026-04-22 05:59 32.73293 -117.19130 28 ft 8 kts 112°
2026-04-22 05:59 32.73277 -117.19065 29 ft 11 kts 106°
2026-04-22 05:59 32.73244 -117.18932 29 ft 21 kts 107°
2026-04-22 05:59 32.73225 -117.18843 31 ft 3 kts 107°
2026-04-22 06:00 32.73185 -117.18684 32 ft 32 kts 106°
2026-04-22 06:00 32.73120 -117.18424 28 ft 33 kts 106°
2026-04-22 06:00 32.73060 -117.18171 30 ft 22 kts 100°
2026-04-22 06:00 32.73069 -117.18130 27 ft 11 kts 59°
2026-04-22 06:01 32.73098 -117.18110 25 ft 0 kts 14°
2026-04-22 06:01 32.73155 -117.18133 27 ft 18 kts 309°
2026-04-22 06:01 32.73235 -117.18440 29 ft 76 kts 287°
2026-04-22 06:02 32.73468 -117.19371 35 ft 160 kts 287°
2026-04-22 06:02 32.73866 -117.20764 584 ft 186 kts 290°
2026-04-22 06:02 32.74468 -117.22178 1431 ft 191 kts 303°
2026-04-22 06:02 32.75234 -117.23510 2289 ft 203 kts 304°
2026-04-22 06:03 32.76057 -117.24922 2993 ft 215 kts 304°
2026-04-22 06:03 32.76930 -117.26448 3670 ft 231 kts 303°
2026-04-22 06:03 32.77849 -117.28083 4385 ft 247 kts 303°
2026-04-22 06:03 32.78833 -117.29851 5108 ft 264 kts 303°
2026-04-22 06:04 32.79898 -117.31646 5618 ft 267 kts 311°
2026-04-22 06:04 32.81210 -117.33221 5807 ft 269 kts 316°
2026-04-22 06:04 32.82587 -117.34738 5815 ft 270 kts 317°
2026-04-22 06:04 32.83970 -117.36247 5822 ft 270 kts 317°
2026-04-22 06:05 32.85357 -117.37767 5821 ft 270 kts 317°
2026-04-22 06:05 32.86743 -117.39294 6134 ft 274 kts 317°
2026-04-22 06:05 32.88126 -117.40823 7091 ft 275 kts 317°
2026-04-22 06:05 32.89529 -117.42376 8192 ft 276 kts 316°
2026-04-22 06:06 32.90939 -117.43940 9086 ft 279 kts 316°
2026-04-22 06:06 32.92372 -117.45531 9610 ft 283 kts 316°
2026-04-22 06:06 32.93818 -117.47138 9800 ft 284 kts 316°
2026-04-22 06:06 32.95269 -117.48751 9823 ft 286 kts 316°
2026-04-22 06:07 32.96725 -117.50370 9816 ft 287 kts 316°
2026-04-22 06:07 32.98182 -117.51992 9821 ft 287 kts 316°
2026-04-22 06:07 32.99640 -117.53615 9816 ft 287 kts 316°
2026-04-22 06:07 33.01095 -117.55236 9822 ft 287 kts 316°
2026-04-22 06:08 33.02559 -117.56867 9816 ft 287 kts 316°
2026-04-22 06:08 33.04014 -117.58490 9816 ft 287 kts 316°
2026-04-22 06:08 33.05452 -117.60094 9817 ft 287 kts 316°
2026-04-22 06:08 33.06909 -117.61720 9816 ft 287 kts 316°
2026-04-22 06:09 33.08364 -117.63345 9824 ft 287 kts 316°
2026-04-22 06:09 33.09821 -117.64973 9816 ft 287 kts 316°
2026-04-22 06:09 33.11276 -117.66600 9816 ft 287 kts 316°
2026-04-22 06:09 33.12733 -117.68229 9818 ft 287 kts 316°
2026-04-22 06:10 33.14189 -117.69858 9818 ft 287 kts 316°
2026-04-22 06:10 33.15644 -117.71486 9818 ft 287 kts 316°
2026-04-22 06:10 33.17100 -117.73116 9818 ft 287 kts 316°
2026-04-22 06:10 33.18553 -117.74745 9816 ft 287 kts 316°
2026-04-22 06:11 33.20007 -117.76374 9817 ft 287 kts 316°
2026-04-22 06:11 33.21462 -117.78006 9817 ft 287 kts 316°
2026-04-22 06:11 33.22916 -117.79637 9818 ft 287 kts 316°
2026-04-22 06:11 33.24371 -117.81271 9816 ft 287 kts 316°
2026-04-22 06:12 33.25827 -117.82906 9817 ft 287 kts 316°
2026-04-22 06:12 33.27278 -117.84536 9822 ft 287 kts 316°
2026-04-22 06:12 33.28715 -117.86152 9816 ft 287 kts 316°
2026-04-22 06:12 33.30179 -117.87769 9813 ft 287 kts 321°
2026-04-22 06:13 33.31962 -117.88794 9819 ft 286 kts 342°
2026-04-22 06:13 33.33879 -117.89467 9819 ft 287 kts 344°
2026-04-22 06:13 33.35812 -117.90102 9816 ft 288 kts 344°
2026-04-22 06:13 33.37737 -117.90751 9816 ft 288 kts 343°
2026-04-22 06:14 33.39660 -117.91418 9818 ft 288 kts 343°
2026-04-22 06:14 33.41577 -117.92096 9617 ft 287 kts 343°
2026-04-22 06:14 33.43462 -117.92771 9424 ft 277 kts 343°
2026-04-22 06:14 33.45272 -117.93423 9290 ft 266 kts 343°
2026-04-22 06:15 33.47011 -117.94052 9163 ft 255 kts 342°
2026-04-22 06:15 33.48675 -117.94655 9045 ft 245 kts 342°
2026-04-22 06:15 33.50274 -117.95236 8907 ft 236 kts 342°
2026-04-22 06:15 33.51832 -117.95803 8639 ft 234 kts 342°
2026-04-22 06:16 33.53420 -117.96380 8034 ft 246 kts 342°
2026-04-22 06:16 33.55118 -117.97000 7298 ft 262 kts 342°
2026-04-22 06:16 33.56877 -117.97640 6911 ft 262 kts 342°
2026-04-22 06:16 33.58577 -117.98259 6820 ft 249 kts 342°
2026-04-22 06:17 33.60186 -117.98844 6817 ft 233 kts 342°
2026-04-22 06:17 33.61699 -117.99396 6820 ft 224 kts 342°
2026-04-22 06:17 33.63190 -117.99940 6817 ft 224 kts 342°
2026-04-22 06:17 33.64668 -118.00479 6555 ft 225 kts 342°
2026-04-22 06:18 33.66186 -118.01034 6280 ft 224 kts 342°
2026-04-22 06:18 33.67672 -118.01576 6005 ft 222 kts 342°
2026-04-22 06:18 33.69128 -118.02108 5732 ft 222 kts 342°
2026-04-22 06:18 33.70601 -118.02647 5455 ft 221 kts 342°
2026-04-22 06:19 33.72066 -118.03182 5183 ft 220 kts 342°
2026-04-22 06:19 33.73528 -118.03717 4895 ft 219 kts 342°
2026-04-22 06:19 33.74979 -118.04248 4615 ft 218 kts 342°
2026-04-22 06:19 33.76429 -118.04778 4338 ft 217 kts 342°
2026-04-22 06:20 33.77872 -118.05299 4070 ft 216 kts 343°
2026-04-22 06:20 33.79317 -118.05782 3793 ft 215 kts 344°
2026-04-22 06:20 33.80760 -118.06251 3522 ft 214 kts 344°
2026-04-22 06:20 33.82198 -118.06715 3218 ft 215 kts 344°
2026-04-22 06:21 33.83656 -118.07183 2887 ft 217 kts 344°
2026-04-22 06:21 33.85087 -118.07643 2821 ft 210 kts 344°
2026-04-22 06:21 33.86505 -118.08099 2819 ft 211 kts 344°
2026-04-22 06:21 33.87927 -118.08556 2818 ft 212 kts 344°
2026-04-22 06:22 33.89327 -118.09007 2829 ft 201 kts 344°
2026-04-22 06:22 33.90631 -118.09426 2845 ft 196 kts 344°
2026-04-22 06:22 33.91953 -118.09851 2824 ft 197 kts 344°
2026-04-22 06:22 33.93272 -118.10276 2563 ft 197 kts 344°
2026-04-22 06:23 33.94599 -118.10705 2339 ft 198 kts 344°
2026-04-22 06:23 33.95914 -118.11177 2080 ft 198 kts 337°
2026-04-22 06:23 33.97013 -118.12118 1623 ft 194 kts 303°
2026-04-22 06:23 33.97535 -118.13578 1198 ft 187 kts 284°
2026-04-22 06:24 33.97603 -118.16579 1799 ft 175 kts 263°
2026-04-22 06:24 33.97460 -118.18015 2011 ft 171 kts 263°
2026-04-22 06:24 33.97312 -118.19436 2039 ft 172 kts 263°
2026-04-22 06:25 33.97168 -118.20872 2018 ft 173 kts 263°
2026-04-22 06:25 33.97027 -118.22317 2017 ft 174 kts 263°
2026-04-22 06:25 33.96885 -118.23760 2020 ft 174 kts 263°
2026-04-22 06:25 33.96740 -118.25198 2017 ft 173 kts 263°
2026-04-22 06:26 33.96594 -118.26634 1833 ft 173 kts 263°
2026-04-22 06:26 33.96445 -118.28080 1773 ft 173 kts 263°
2026-04-22 06:26 33.96298 -118.29518 1409 ft 173 kts 263°
2026-04-22 06:26 33.96150 -118.30959 1309 ft 173 kts 263°
2026-04-22 06:27 33.96004 -118.32393 953 ft 172 kts 263°
2026-04-22 06:27 33.95861 -118.33800 822 ft 167 kts 263°
2026-04-22 06:27 33.95723 -118.35156 684 ft 161 kts 263°
2026-04-22 06:27 33.95587 -118.36487 574 ft 160 kts 263°
2026-04-22 06:28 33.95460 -118.37823 374 ft 161 kts 264°
2026-04-22 06:28 33.95330 -118.39157 244 ft 160 kts 263°
2026-04-22 06:28 33.95180 -118.40489 126 ft 159 kts 263°
2026-04-22 06:28 33.95076 -118.41503 125 ft 67 kts 258°